[[[{"header":{"parameterUnit":"kt","parameterCategory":2,"dx":1,"dy":1,"la1":30.253999710083008,"la2":30.299108505249023,"lo1":-89.0895004272461,"lo2":-89.04439544677734,"nx":28,"ny":28,"refTime":"2022-10-22T21:00:00:Z","depth":"0","parameterNumber":2,"parameterNumberName":"U-component_of_CURRENTS"},"data":[0.4513,0.4488,0.449,0.4344,0.4301,0.4116,0.4042,0.3912,0.3837,0.3529,0.3281,0.3212,0.308,0.2813,0.2518,0.2456,0.228,0.207,0.2196,0.2657,0.2721,0.2782,0.2631,0.217,0.2169,0.1413,0.1407,0.1402,0.4568,0.4583,0.4598,0.4535,0.4479,0.4504,0.4478,0.4364,0.4277,0.4272,0.4223,0.3942,0.3695,0.3553,0.3249,0.3052,0.292,0.2955,0.268,0.2664,0.3299,0.3152,0.2794,0.2794,0.2794,0.2794,0.2794,0.2795,0.4654,0.466,0.4664,0.4648,0.4651,0.4605,0.4537,0.4598,0.4599,0.4582,0.4747,0.4595,0.4465,0.4268,0.4171,0.3851,0.3893,0.3659,0.3624,0.3498,0.3272,0.3902,0.3792,0.3795,0.3799,0.3801,0.3804,0,0.468,0.4694,0.47,0.4698,0.4708,0.4689,0.4745,0.4766,0.4869,0.4928,0.4979,0.4972,0.4957,0.4725,0.4629,0.452,0.4323,0.4458,0.4389,0.3745,0.3481,0.3374,0.4132,0.4099,0.4105,0.4109,0.4112,0.4114,0.4706,0.4709,0.472,0.4716,0.4716,0.4755,0.4775,0.4852,0.4907,0.5052,0.5108,0.5203,0.5168,0.5162,0.5019,0.4908,0.4743,0.4592,0.4433,0.4286,0.4211,0.4047,0.396,0.4174,0.4166,0.416,0.4155,0,0.4723,0.4709,0.471,0.4733,0.4737,0.4779,0.4802,0.4859,0.4962,0.5039,0.509,0.5206,0.5242,0.521,0.5232,0.5101,0.4872,0.4975,0.4677,0.4623,0.4324,0.4261,0.4041,0.393,0.4848,0.4845,0.4842,0,0.4712,0.4714,0.4717,0.4711,0.4741,0.4758,0.4805,0.4855,0.4937,0.4973,0.5048,0.5095,0.5117,0.5138,0.5071,0.4979,0.5095,0.4824,0.4811,0.4565,0.453,0.4431,0.4357,0.4988,0.4987,0.4986,0.4985,0,0.4714,0.4698,0.469,0.4681,0.4677,0.4696,0.4716,0.4756,0.4764,0.4898,0.4942,0.4992,0.5051,0.5031,0.497,0.4921,0.5012,0.496,0.4792,0.4782,0.4562,0.4526,0.4473,0.4984,0.4984,0.4983,0.4983,0,0.4685,0.4675,0.4661,0.4666,0.4665,0.4665,0.4705,0.4702,0.4751,0.4751,0.4774,0.4777,0.4842,0.4748,0.4801,0.4753,0.4732,0.4722,0.4726,0.4591,0.4527,0.4335,0.4384,0.4266,0.4745,0.4743,0.4741,0,0.4691,0.4673,0.4637,0.4628,0.4618,0.4584,0.459,0.457,0.4552,0.4587,0.4569,0.4614,0.4509,0.456,0.4563,0.4615,0.463,0.4554,0.4639,0.4642,0.4472,0.4574,0.4293,0.4368,0.4715,0.4718,0.472,0,0.4691,0.4638,0.4637,0.4624,0.4567,0.4552,0.4539,0.4504,0.4536,0.4439,0.4481,0.4458,0.446,0.4474,0.4471,0.4495,0.4586,0.4466,0.4468,0.4479,0.4701,0.4555,0.4559,0.4569,0.4572,0.4574,0.4699,0,0.4651,0.4629,0.463,0.4579,0.4556,0.4532,0.4475,0.4452,0.4398,0.434,0.4356,0.4329,0.4344,0.4345,0.4325,0.4417,0.4401,0.438,0.4323,0.4418,0.4461,0.4478,0.4274,0.4273,0.4273,0.4272,0,0,0.4653,0.4608,0.457,0.455,0.452,0.4454,0.4434,0.4387,0.4288,0.4276,0.4232,0.4221,0.4209,0.4263,0.4286,0.4281,0.43,0.4241,0.4378,0.439,0.4401,0.4446,0.4462,0.4271,0.4271,0.427,0.427,0,0.4618,0.4588,0.458,0.4542,0.4475,0.4416,0.4422,0.4316,0.4273,0.4229,0.4195,0.4215,0.4164,0.4171,0.4175,0.4262,0.4229,0.4269,0.4314,0.437,0.4382,0.4393,0.444,0.4456,0.4268,0.4269,0.4269,0,0.459,0.454,0.453,0.4456,0.4396,0.4363,0.4294,0.4256,0.4223,0.415,0.4098,0.4086,0.4081,0.4087,0.4099,0.4073,0.4168,0.4117,0.4124,0.4133,0.4187,0.4203,0.4217,0.4031,0.403,0.4029,0,0,0.4568,0.4551,0.4461,0.4439,0.4421,0.4317,0.4282,0.4226,0.4167,0.4143,0.4078,0.4058,0.4062,0.4054,0.4041,0.4054,0.4069,0.4085,0.4097,0.4106,0.4119,0.4176,0.4192,0.4025,0.4025,0.4025,0,0,0.4546,0.4462,0.4422,0.4398,0.4334,0.4212,0.4199,0.4147,0.41,0.41,0.4026,0.4014,0.4034,0.4017,0.3969,0.4023,0.3985,0.3992,0.4001,0.4015,0.4026,0.4037,0.389,0,0,0,0,0,0.447,0.4478,0.4443,0.4426,0.4296,0.4231,0.4209,0.4122,0.4097,0.4092,0.4048,0.4003,0.3986,0.394,0.3931,0.3958,0.3971,0.3981,0.399,0.4007,0.4022,0.4034,0,0,0,0,0,0,0.4463,0.4444,0.4442,0.4326,0.4296,0.4229,0.4155,0.4129,0.4095,0.4086,0.4009,0.4,0.394,0.3941,0.3933,0.3961,0.3892,0.3975,0.3983,0.3991,0.4012,0.4024,0.4034,0,0,0,0,0,0.4457,0.4441,0.4266,0.4324,0.4298,0.4183,0.4155,0.4133,0.4102,0.4018,0.4004,0.4046,0.3941,0.3932,0.3936,0.3966,0.3897,0.3894,0.398,0.3987,0.3992,0.4018,0,0,0,0,0,0,0.4452,0.4401,0.4257,0.4245,0.433,0.4185,0.4162,0.4137,0.4035,0.402,0.4051,0.4046,0.3941,0.3935,0.3928,0.3971,0.3901,0.3898,0.3896,0.3985,0.399,0.3995,0,0,0,0,0,0,0.4409,0.4391,0.4251,0.4264,0.4252,0.4187,0.4167,0.4143,0.4038,0.4073,0.4065,0.4051,0.3987,0.3936,0.3931,0.3891,0.3904,0.3901,0.3899,0.3898,0.3989,0.3993,0,0,0,0,0,0,0.4399,0.4383,0.4266,0.4257,0.4246,0.4092,0.4165,0.4056,0.3993,0.4081,0.3992,0.3992,0.3992,0.3983,0.3933,0.3896,0.3892,0.3903,0.3902,0.3901,0.39,0,0,0,0,0,0,0,0.4391,0.4526,0.4341,0.4251,0.4241,0.4131,0.4126,0.4122,0.3993,0.3993,0.3992,0.3992,0.3918,0.3915,0.3912,0.3899,0,0,0.3904,0.3903,0,0,0,0,0,0,0,0,0.453,0.4527,0.434,0.4338,0.4336,0.413,0.4126,0.4123,0.3993,0.3993,0.3992,0.3992,0.3917,0.3915,0.3913,0,0,0,0,0,0,0,0,0,0,0,0,0,0,0,0.434,0.4338,0,0.4129,0.4127,0.4124,0.3993,0.3993,0.3992,0.3992,0.3917,0.3915,0.3913,0,0,0,0,0,0,0,0,0,0,0,0,0,0,0,0,0,0,0,0,0,0,0,0,0,0,0,0,0,0,0,0,0,0,0,0,0,0,0,0,0,0,0,0,0,0,0,0,0,0,0,0,0,0,0,0,0,0,0,0,0,0,0,0,0,0,0,0,0]}],[{"header":{"parameterUnit":"kt","parameterCategory":2,"dx":1,"dy":1,"la1":30.253999710083008,"la2":30.299108505249023,"lo1":-89.0895004272461,"lo2":-89.04439544677734,"nx":28,"ny":28,"refTime":"2022-10-22T21:00:00:Z","depth":"0","parameterNumber":3,"parameterNumberName":"V-component_of_CURRENTS"},"data":[0.1448,0.1595,0.1685,0.1961,0.2118,0.2344,0.2504,0.2766,0.2972,0.3169,0.3152,0.3112,0.2704,0.1618,0.0877,0.0687,0.0459,0.0422,0.0316,0.0447,0.0461,0.0475,0.0471,0.0333,0.0333,0.0113,0.0111,0.0109,0.1418,0.1527,0.1709,0.1921,0.2108,0.2199,0.2509,0.2666,0.2959,0.3205,0.3369,0.3118,0.2609,0.2026,0.124,0.0869,0.0711,0.068,0.0639,0.0595,0.0822,0.0833,0.077,0.077,0.077,0.077,0.077,0.077,0.1372,0.1468,0.1614,0.1799,0.1982,0.2196,0.2346,0.2594,0.2852,0.3146,0.3231,0.329,0.2854,0.2114,0.1736,0.1107,0.1107,0.0884,0.0834,0.0828,0.0778,0.1031,0.1016,0.1016,0.1016,0.1016,0.1016,0,0.1315,0.138,0.1496,0.1688,0.1848,0.2023,0.2239,0.2393,0.2603,0.2803,0.3048,0.3095,0.2808,0.2425,0.1873,0.1541,0.1135,0.1147,0.1029,0.0866,0.0836,0.0737,0.0986,0.1024,0.1024,0.1024,0.1024,0.1024,0.1235,0.131,0.1484,0.1582,0.1655,0.183,0.1965,0.2101,0.227,0.2537,0.2682,0.2694,0.2712,0.2332,0.1879,0.1427,0.1248,0.1159,0.1033,0.091,0.0814,0.0793,0.074,0.1023,0.1023,0.1023,0.1023,0,0.1196,0.1244,0.1382,0.1515,0.1568,0.1693,0.188,0.202,0.2133,0.2358,0.2418,0.2469,0.2365,0.2079,0.1807,0.1545,0.1228,0.1176,0.119,0.1148,0.0876,0.0823,0.08,0.0738,0.1001,0.1001,0.1001,0,0.1133,0.1217,0.1314,0.1374,0.1531,0.1571,0.1745,0.1805,0.1939,0.2099,0.2051,0.2177,0.1934,0.1848,0.1559,0.1329,0.1373,0.1059,0.1013,0.1017,0.1014,0.0888,0.0829,0.1064,0.1064,0.1065,0.1065,0,0.1056,0.1162,0.126,0.129,0.1391,0.1462,0.1523,0.1598,0.169,0.1795,0.1893,0.1825,0.1865,0.1667,0.1434,0.1371,0.128,0.117,0.1008,0.1003,0.0983,0.0976,0.0952,0.1066,0.1066,0.1066,0.1066,0,0.0995,0.1059,0.1164,0.1274,0.1301,0.1351,0.1465,0.1511,0.1578,0.16,0.1611,0.1578,0.1555,0.1421,0.1278,0.1284,0.1132,0.1028,0.1024,0.0995,0.0895,0.0865,0.094,0.0826,0.0911,0.091,0.091,0,0.0927,0.1027,0.103,0.1124,0.1181,0.1174,0.1227,0.1254,0.1269,0.1343,0.1281,0.1324,0.1161,0.1187,0.1133,0.1044,0.1,0.0996,0.0892,0.0889,0.0885,0.0967,0.0976,0.0931,0.0903,0.0903,0.0904,0,0.0866,0.0927,0.0936,0.0987,0.0997,0.1033,0.1063,0.1102,0.1173,0.1114,0.1206,0.1106,0.1082,0.1059,0.0989,0.0967,0.0978,0.089,0.0887,0.0871,0.0959,0.0954,0.0957,0.0951,0.0953,0.0954,0.0898,0,0.0825,0.0861,0.0889,0.0925,0.0939,0.0973,0.0971,0.0982,0.0967,0.0959,0.0974,0.0895,0.0887,0.0848,0.0788,0.0828,0.0784,0.0748,0.0716,0.0781,0.0741,0.0746,0.0658,0.0656,0.0655,0.0653,0,0,0.0758,0.0803,0.0795,0.0834,0.0856,0.0822,0.0864,0.0855,0.0831,0.0849,0.0804,0.076,0.0697,0.0716,0.0718,0.0677,0.0657,0.0687,0.074,0.075,0.0759,0.0726,0.0733,0.065,0.065,0.0649,0.0649,0,0.0745,0.0748,0.0785,0.0794,0.0811,0.0798,0.0811,0.0798,0.0793,0.0787,0.073,0.0706,0.0652,0.0628,0.0609,0.0652,0.0601,0.0633,0.0727,0.0725,0.0738,0.0748,0.0719,0.0726,0.0645,0.0645,0.0645,0,0.0701,0.0717,0.0729,0.0747,0.0744,0.0765,0.0727,0.0742,0.0759,0.0671,0.0669,0.0617,0.0564,0.0555,0.0548,0.0529,0.0555,0.0535,0.0543,0.0571,0.0567,0.0581,0.0593,0.0436,0.0436,0.0435,0,0,0.0693,0.0718,0.0721,0.0744,0.0751,0.0731,0.073,0.0716,0.0693,0.0677,0.0632,0.059,0.056,0.0546,0.0506,0.0502,0.048,0.0513,0.0523,0.0532,0.0564,0.0563,0.0576,0.0434,0.0434,0.0434,0,0,0.0684,0.0703,0.0692,0.0721,0.0721,0.0702,0.071,0.0691,0.0656,0.0651,0.0588,0.0573,0.0559,0.0522,0.0513,0.0505,0.046,0.046,0.054,0.0552,0.0561,0.061,0.0458,0,0,0,0,0,0.068,0.0706,0.0698,0.0702,0.07,0.071,0.0705,0.0678,0.0662,0.0663,0.0618,0.0581,0.0506,0.0496,0.0484,0.0511,0.0419,0.0422,0.0424,0.0525,0.0537,0.0548,0,0,0,0,0,0,0.0682,0.0688,0.0697,0.0685,0.0685,0.0708,0.0669,0.066,0.0661,0.0655,0.0591,0.0579,0.0531,0.0499,0.0489,0.0516,0.0461,0.042,0.0422,0.0425,0.0529,0.0539,0.0548,0,0,0,0,0,0.0684,0.0689,0.0699,0.0683,0.0682,0.0658,0.0668,0.066,0.0649,0.0595,0.0583,0.0635,0.0533,0.0521,0.0492,0.0522,0.0468,0.0464,0.0422,0.0423,0.0425,0.0534,0,0,0,0,0,0,0.0685,0.0658,0.0697,0.0695,0.0681,0.0655,0.0651,0.0661,0.0587,0.0578,0.0636,0.0633,0.0534,0.0524,0.0515,0.0529,0.0473,0.0469,0.0467,0.0423,0.0424,0.0426,0,0,0,0,0,0,0.0656,0.0657,0.0696,0.0695,0.0693,0.0652,0.065,0.0615,0.0585,0.0628,0.0625,0.0635,0.0546,0.0527,0.0519,0.0465,0.0477,0.0474,0.0471,0.047,0.0424,0.0425,0,0,0,0,0,0,0.0655,0.0655,0.0695,0.0693,0.069,0.0657,0.0617,0.0609,0.061,0.063,0.0608,0.0608,0.055,0.0541,0.0522,0.0472,0.0467,0.0477,0.0475,0.0473,0.0472,0,0,0,0,0,0,0,0.0654,0.0667,0.0722,0.069,0.0688,0.068,0.0678,0.0676,0.061,0.0609,0.0608,0.0608,0.0498,0.0494,0.049,0.0477,0,0,0.0478,0.0476,0,0,0,0,0,0,0,0,0.0665,0.0666,0.0722,0.0722,0.0722,0.068,0.0678,0.0677,0.061,0.0609,0.0609,0.0608,0.0496,0.0493,0.049,0,0,0,0,0,0,0,0,0,0,0,0,0,0,0,0.0722,0.0722,0,0.0679,0.0678,0.0677,0.0609,0.0609,0.0609,0.0608,0.0496,0.0493,0.049,0,0,0,0,0,0,0,0,0,0,0,0,0,0,0,0,0,0,0,0,0,0,0,0,0,0,0,0,0,0,0,0,0,0,0,0,0,0,0,0,0,0,0,0,0,0,0,0,0,0,0,0,0,0,0,0,0,0,0,0,0,0,0,0,0,0,0,0,0]}]],[[{"header":{"parameterUnit":"kt","parameterCategory":2,"dx":1,"dy":1,"la1":30.253999710083008,"la2":30.299108505249023,"lo1":-89.0895004272461,"lo2":-89.04439544677734,"nx":28,"ny":28,"refTime":"2022-10-22T21:00:00:Z","depth":"2","parameterNumber":2,"parameterNumberName":"U-component_of_CURRENTS"},"data":[0.3252,0.3206,0.3195,0.313,0.3171,0.3041,0.2946,0.2808,0.2778,0.2581,0.2501,0.2631,0.2671,0.2183,0.2072,0.184,0.2073,0.1756,0.2682,0.2696,0.2754,0.2865,0.2679,0,0,0,0,0,0.3287,0.3259,0.3309,0.3341,0.333,0.3426,0.3395,0.3275,0.3181,0.3244,0.3222,0.2871,0.2688,0.2719,0.2436,0.2385,0.2363,0.2283,0.2231,0.23,0.2362,0.219,0.1683,0.1679,0.1676,0.1673,0,0,0.3338,0.3324,0.3375,0.3445,0.3517,0.3503,0.3447,0.3531,0.3576,0.3595,0.3732,0.3602,0.3611,0.3339,0.3186,0.3083,0.3344,0.3162,0.3185,0.3217,0.309,0.2987,0.282,0.2824,0.2828,0.2832,0.2835,0,0.3348,0.3402,0.3417,0.3506,0.3562,0.3606,0.3703,0.3767,0.3925,0.4003,0.4044,0.4039,0.407,0.3829,0.3785,0.3688,0.3754,0.3606,0.4201,0.3377,0.3278,0.3259,0.328,0.3189,0.3196,0.3201,0.3204,0.3207,0.338,0.3412,0.349,0.3527,0.3567,0.3668,0.3726,0.3887,0.3966,0.4164,0.4203,0.4317,0.4276,0.4315,0.4211,0.414,0.4248,0.3768,0.3635,0.4079,0.4061,0.4055,0.4049,0.3281,0.3271,0.3264,0.3258,0,0.3413,0.3438,0.3471,0.355,0.3582,0.3643,0.3798,0.3866,0.4031,0.4148,0.42,0.4324,0.436,0.439,0.445,0.4354,0.4331,0.4272,0.3895,0.3834,0.4078,0.4067,0.4134,0.4129,0.4125,0.4122,0.4119,0,0.3445,0.3453,0.3495,0.3509,0.3585,0.3632,0.3751,0.3812,0.3974,0.4062,0.4128,0.4193,0.4285,0.4335,0.4308,0.427,0.4385,0.4169,0.4156,0.3853,0.3812,0.423,0.4214,0.4354,0.4353,0.4353,0.4352,0,0.3454,0.3463,0.3489,0.3497,0.3552,0.3607,0.3653,0.376,0.3854,0.3974,0.4049,0.4136,0.4221,0.4241,0.4243,0.4219,0.4336,0.4304,0.4149,0.4137,0.384,0.3796,0.4351,0.4351,0.4351,0.4351,0.4351,0,0.3459,0.3464,0.3483,0.3518,0.3532,0.3559,0.3659,0.3706,0.3818,0.3877,0.3949,0.3986,0.4078,0.4027,0.4129,0.41,0.4103,0.4117,0.4121,0.3955,0.3898,0.3634,0.3647,0.4127,0.4125,0.4123,0.4122,0,0.347,0.3463,0.3466,0.348,0.3483,0.3514,0.3572,0.3617,0.3664,0.3743,0.3792,0.3879,0.3838,0.3895,0.3927,0.3994,0.4019,0.3954,0.4028,0.403,0.3872,0.3956,0.3606,0.3639,0.41,0.4102,0.4104,0,0.3458,0.3447,0.3447,0.3452,0.3468,0.347,0.3518,0.3559,0.3615,0.3635,0.3719,0.3773,0.38,0.3823,0.3841,0.3879,0.3977,0.3872,0.3873,0.3891,0.4102,0.3944,0.3943,0.3996,0.3999,0.4001,0.4086,0,0.3438,0.3436,0.3445,0.3437,0.3446,0.346,0.3467,0.3493,0.3516,0.3531,0.3623,0.3641,0.3695,0.3715,0.3712,0.3812,0.3804,0.3791,0.3738,0.3819,0.3843,0.3857,0.367,0.3668,0.3667,0.3666,0,0,0.3434,0.3421,0.341,0.341,0.342,0.3413,0.3422,0.3431,0.3437,0.3473,0.3459,0.3551,0.3559,0.3637,0.3667,0.367,0.3696,0.3652,0.3775,0.3787,0.3798,0.3826,0.384,0.3664,0.3663,0.3663,0.3662,0,0.3413,0.3414,0.3408,0.3403,0.3405,0.3396,0.3403,0.3394,0.341,0.3437,0.3449,0.3495,0.3524,0.3548,0.3565,0.3647,0.3641,0.3668,0.3705,0.3762,0.3776,0.3788,0.3818,0.3832,0.3659,0.366,0.366,0,0.3394,0.3384,0.3377,0.3364,0.3365,0.3361,0.3345,0.3355,0.3365,0.3346,0.3379,0.3405,0.3422,0.3472,0.3496,0.3464,0.3577,0.3531,0.3538,0.3537,0.3594,0.361,0.3624,0.3438,0.3438,0.3437,0,0,0.3383,0.3375,0.3352,0.3358,0.3359,0.3346,0.3345,0.3336,0.3338,0.3342,0.3343,0.3363,0.34,0.3408,0.3433,0.3469,0.3474,0.3505,0.3516,0.3524,0.3528,0.3586,0.3602,0.3435,0.3435,0.3434,0,0,0.3375,0.3344,0.3339,0.3337,0.333,0.3307,0.3319,0.3308,0.3319,0.3331,0.3317,0.3319,0.3376,0.3363,0.333,0.3419,0.3376,0.3382,0.3422,0.3435,0.3445,0.3444,0.3295,0,0,0,0,0,0.3343,0.3347,0.3343,0.3341,0.332,0.3311,0.3309,0.3294,0.3295,0.3299,0.3311,0.3293,0.3348,0.3318,0.3321,0.3367,0.3402,0.3408,0.3413,0.3476,0.3489,0.3501,0,0,0,0,0,0,0.3342,0.3338,0.3343,0.332,0.3316,0.3311,0.3291,0.3287,0.3294,0.3292,0.3292,0.3292,0.3279,0.3315,0.3318,0.3363,0.3294,0.3404,0.3409,0.3414,0.348,0.3491,0.3501,0,0,0,0,0,0.3341,0.3338,0.3309,0.332,0.3316,0.3298,0.3291,0.3287,0.3294,0.3282,0.3281,0.3285,0.3279,0.3282,0.3317,0.3363,0.3292,0.3293,0.3407,0.3411,0.3415,0.3486,0,0,0,0,0,0,0.334,0.3333,0.3308,0.3306,0.3318,0.3298,0.3294,0.3288,0.3284,0.3283,0.3273,0.3271,0.328,0.3282,0.3284,0.3364,0.329,0.3292,0.3292,0.341,0.3413,0.3416,0,0,0,0,0,0,0.3334,0.3331,0.3307,0.3305,0.3303,0.3298,0.3295,0.3308,0.3285,0.3275,0.3273,0.3272,0.3288,0.3281,0.3283,0.3303,0.3289,0.329,0.3291,0.3291,0.3413,0.3415,0,0,0,0,0,0,0.3333,0.333,0.3305,0.3303,0.3302,0.3282,0.3311,0.3297,0.3264,0.3276,0.3263,0.3262,0.3288,0.3289,0.3283,0.3302,0.3303,0.3289,0.329,0.329,0.3291,0,0,0,0,0,0,0,0.3332,0.3351,0.3319,0.3302,0.3301,0.3292,0.3292,0.3291,0.3264,0.3263,0.3263,0.3262,0.3283,0.3284,0.3285,0.3301,0,0,0.3289,0.329,0,0,0,0,0,0,0,0,0.3352,0.3352,0.3319,0.3319,0.3318,0.3292,0.3292,0.3291,0.3263,0.3263,0.3263,0.3263,0.3283,0.3284,0.3285,0,0,0,0,0,0,0,0,0,0,0,0,0,0,0,0.3319,0.3319,0,0.3292,0.3292,0.3291,0.3263,0.3263,0.3263,0.3263,0.3283,0.3284,0.3285,0,0,0,0,0,0,0,0,0,0,0,0,0,0,0,0,0,0,0,0,0,0,0,0,0,0,0,0,0,0,0,0,0,0,0,0,0,0,0,0,0,0,0,0,0,0,0,0,0,0,0,0,0,0,0,0,0,0,0,0,0,0,0,0,0,0,0,0,0]}],[{"header":{"parameterUnit":"kt","parameterCategory":2,"dx":1,"dy":1,"la1":30.253999710083008,"la2":30.299108505249023,"lo1":-89.0895004272461,"lo2":-89.04439544677734,"nx":28,"ny":28,"refTime":"2022-10-22T21:00:00:Z","depth":"2","parameterNumber":3,"parameterNumberName":"V-component_of_CURRENTS"},"data":[0.0618,0.0708,0.0766,0.1005,0.1143,0.1365,0.1506,0.1708,0.1848,0.193,0.1928,0.189,0.1534,0.1162,0.077,0.0495,0.042,0.0413,0.0447,0.059,0.0597,0.0326,0.0396,0,0,0,0,0,0.0599,0.066,0.0777,0.0953,0.1105,0.119,0.1435,0.1574,0.1797,0.1919,0.1995,0.1699,0.1425,0.1095,0.0601,0.0285,0.0268,0.0157,0.0232,0.0238,0.0242,0.0281,0.0192,0.0191,0.019,0.0189,0,0,0.0569,0.0618,0.0721,0.0863,0.1,0.1183,0.1317,0.1498,0.1693,0.1876,0.1869,0.1855,0.1589,0.1065,0.0721,0.0369,0.038,0.0233,0.0237,0.0242,0.0278,0.0273,0.019,0.019,0.0189,0.0189,0.0188,0,0.0548,0.0591,0.0662,0.081,0.0927,0.1071,0.1229,0.135,0.1507,0.163,0.1758,0.1749,0.1502,0.1233,0.081,0.0581,0.0404,0.0323,0.0336,0.0404,0.0402,0.0368,0.0372,0.0339,0.034,0.034,0.034,0.034,0.052,0.0565,0.0695,0.0765,0.0818,0.0941,0.1043,0.1163,0.1284,0.1441,0.1533,0.15,0.148,0.1162,0.0868,0.0541,0.049,0.0342,0.0325,0.0325,0.0289,0.0294,0.0299,0.0343,0.0343,0.0342,0.0342,0,0.0509,0.0554,0.0643,0.0745,0.0787,0.0864,0.1023,0.1114,0.1191,0.1341,0.1375,0.1396,0.1295,0.1108,0.09,0.0725,0.0525,0.043,0.048,0.0445,0.0309,0.0311,0.0253,0.0251,0.0249,0.0248,0.0247,0,0.0503,0.0555,0.0635,0.0674,0.0775,0.0817,0.093,0.0975,0.1078,0.119,0.1155,0.1228,0.1089,0.1011,0.0823,0.0638,0.0674,0.0463,0.042,0.0469,0.0467,0.047,0.0468,0.0504,0.0505,0.0506,0.0507,0,0.0476,0.0555,0.0618,0.0644,0.0729,0.0776,0.0825,0.0887,0.097,0.1018,0.1078,0.1039,0.1064,0.093,0.0778,0.0764,0.0645,0.0606,0.0446,0.0439,0.0443,0.0437,0.0508,0.0508,0.0508,0.0509,0.0509,0,0.0464,0.0515,0.058,0.0667,0.0686,0.0721,0.0807,0.0851,0.0905,0.0927,0.0942,0.0926,0.0918,0.085,0.0746,0.077,0.0654,0.0579,0.0573,0.051,0.0444,0.04,0.0419,0.0457,0.0458,0.0458,0.0459,0,0.0439,0.0505,0.0529,0.0591,0.0628,0.0648,0.0696,0.073,0.0752,0.0797,0.0781,0.0805,0.0735,0.0741,0.0711,0.0642,0.0597,0.0628,0.0493,0.0489,0.0456,0.0479,0.0527,0.0426,0.0463,0.0463,0.0462,0,0.0416,0.0479,0.0485,0.0522,0.0551,0.0574,0.0613,0.0653,0.0697,0.0683,0.0737,0.0702,0.0682,0.0672,0.0634,0.0614,0.0596,0.056,0.0557,0.0517,0.053,0.0488,0.048,0.0583,0.0584,0.0584,0.0466,0,0.0427,0.0455,0.0469,0.0509,0.0523,0.0542,0.0563,0.0577,0.0581,0.0587,0.0606,0.0565,0.056,0.0543,0.0513,0.0532,0.0489,0.0473,0.045,0.0486,0.0423,0.0421,0.0429,0.0427,0.0426,0.0425,0,0,0.0397,0.0434,0.0443,0.0469,0.0487,0.0477,0.0502,0.0509,0.0502,0.0518,0.0495,0.0476,0.0442,0.0462,0.0468,0.0442,0.0409,0.0448,0.0464,0.0469,0.0473,0.0417,0.0416,0.0423,0.0422,0.0422,0.0421,0,0.0407,0.0418,0.044,0.0451,0.0467,0.0467,0.0474,0.047,0.0477,0.0482,0.0452,0.0439,0.0414,0.0404,0.0396,0.0424,0.0377,0.0411,0.0471,0.0454,0.046,0.0465,0.0412,0.0412,0.0418,0.0418,0.0419,0,0.0397,0.0418,0.0426,0.0445,0.0444,0.0458,0.0439,0.0444,0.0464,0.0411,0.0419,0.0388,0.036,0.036,0.0356,0.0342,0.0344,0.0347,0.0353,0.0366,0.0346,0.0354,0.036,0.0278,0.0278,0.0278,0,0,0.0404,0.0426,0.0434,0.0445,0.045,0.0442,0.044,0.0435,0.0423,0.0415,0.0393,0.037,0.0357,0.035,0.0327,0.0326,0.0295,0.0334,0.034,0.0346,0.0362,0.0344,0.0351,0.0277,0.0277,0.0277,0,0,0.04,0.0425,0.0425,0.0439,0.0442,0.0433,0.0432,0.0426,0.0407,0.0403,0.0372,0.0364,0.0359,0.0333,0.033,0.0328,0.0296,0.0296,0.0358,0.0365,0.0372,0.0399,0.0301,0,0,0,0,0,0.0416,0.0427,0.0427,0.043,0.0432,0.0437,0.0434,0.042,0.0412,0.0411,0.0389,0.0368,0.0326,0.0323,0.0316,0.0337,0.0271,0.0272,0.0273,0.0352,0.036,0.0367,0,0,0,0,0,0,0.0418,0.0422,0.0427,0.0423,0.0423,0.0436,0.0418,0.0413,0.0412,0.0409,0.0373,0.0367,0.0342,0.0324,0.0318,0.034,0.0303,0.0272,0.0272,0.0273,0.0354,0.0361,0.0367,0,0,0,0,0,0.0419,0.0422,0.0434,0.0421,0.0421,0.0408,0.0417,0.0413,0.0406,0.0377,0.037,0.0399,0.0343,0.0336,0.0321,0.0344,0.0306,0.0304,0.0272,0.0273,0.0274,0.0358,0,0,0,0,0,0,0.0419,0.0405,0.0433,0.0432,0.0421,0.0406,0.0405,0.0414,0.0373,0.0368,0.04,0.0399,0.0343,0.0338,0.0333,0.0347,0.031,0.0307,0.0306,0.0273,0.0273,0.0274,0,0,0,0,0,0,0.0403,0.0404,0.0432,0.0433,0.0432,0.0405,0.0404,0.0383,0.0372,0.0397,0.0395,0.04,0.035,0.0339,0.0335,0.0303,0.0312,0.031,0.0309,0.0308,0.0273,0.0274,0,0,0,0,0,0,0.0403,0.0403,0.0433,0.0432,0.043,0.0411,0.0384,0.0383,0.0386,0.0398,0.0386,0.0386,0.0352,0.0347,0.0337,0.0306,0.0303,0.0312,0.0311,0.031,0.0309,0,0,0,0,0,0,0,0.0402,0.0407,0.0447,0.0431,0.0429,0.0422,0.0421,0.042,0.0386,0.0386,0.0386,0.0386,0.0324,0.0322,0.0319,0.0309,0,0,0.0312,0.0311,0,0,0,0,0,0,0,0,0.0406,0.0407,0.0447,0.0447,0.0447,0.0422,0.0421,0.042,0.0386,0.0386,0.0386,0.0386,0.0323,0.0321,0.032,0,0,0,0,0,0,0,0,0,0,0,0,0,0,0,0.0447,0.0447,0,0.0422,0.0421,0.042,0.0386,0.0386,0.0386,0.0386,0.0323,0.0321,0.032,0,0,0,0,0,0,0,0,0,0,0,0,0,0,0,0,0,0,0,0,0,0,0,0,0,0,0,0,0,0,0,0,0,0,0,0,0,0,0,0,0,0,0,0,0,0,0,0,0,0,0,0,0,0,0,0,0,0,0,0,0,0,0,0,0,0,0,0,0]}]],[[{"header":{"parameterUnit":"kt","parameterCategory":2,"dx":1,"dy":1,"la1":30.253999710083008,"la2":30.299108505249023,"lo1":-89.0895004272461,"lo2":-89.04439544677734,"nx":28,"ny":28,"refTime":"2022-10-22T21:00:00:Z","depth":"4","parameterNumber":2,"parameterNumberName":"U-component_of_CURRENTS"},"data":[0.1091,0.1079,0.1073,0.1023,0.1036,0.1116,0.1233,0.1404,0.142,0.1651,0.1722,0.1878,0.2003,0.2153,0.2131,0.2155,0.2165,0.24,0.2392,0.2535,0.2561,0.2583,0.2465,0,0,0,0,0,0.1158,0.1126,0.1143,0.1178,0.1257,0.1322,0.1483,0.1595,0.1803,0.1824,0.1952,0.2054,0.214,0.2259,0.2185,0.2381,0.2479,0.2277,0.2385,0.2551,0.2579,0.2455,0,0,0,0,0,0,0.1251,0.1242,0.1296,0.1345,0.1422,0.1479,0.1581,0.1671,0.1775,0.2064,0.2095,0.2324,0.2515,0.2504,0.2539,0.2523,0.2489,0.2396,0.2431,0.2459,0.2332,0.2186,0.2023,0,0,0,0,0,0.1331,0.1403,0.143,0.1492,0.1572,0.1645,0.1762,0.1809,0.2018,0.2207,0.2329,0.2424,0.2537,0.2641,0.2658,0.2681,0.2874,0.2785,0.28,0.2758,0.2678,0.2654,0.2658,0.2685,0.2689,0.2691,0.2693,0,0.144,0.1458,0.1579,0.1609,0.1672,0.1772,0.1845,0.2036,0.2111,0.2381,0.2427,0.2642,0.2768,0.2774,0.2908,0.2937,0.2894,0.2858,0.2814,0.2722,0.2692,0.2689,0.2686,0.2715,0.2713,0.2712,0.271,0,0.1496,0.1562,0.1603,0.1723,0.1767,0.1823,0.1994,0.2075,0.2261,0.2405,0.2484,0.2722,0.2854,0.2978,0.312,0.3029,0.3048,0.2979,0.3163,0.3141,0.2734,0.2721,0.2752,0.2744,0.2737,0.2731,0.2726,0,0.1581,0.1609,0.1708,0.1727,0.1797,0.1897,0.2013,0.2128,0.2308,0.2409,0.2602,0.2704,0.2904,0.3009,0.3056,0.3023,0.3182,0.2936,0.2906,0.3102,0.3089,0.3094,0.3078,0.3225,0.3225,0.3225,0.3224,0,0.1608,0.1687,0.1723,0.1754,0.186,0.1931,0.2015,0.2181,0.2272,0.248,0.258,0.2742,0.2848,0.294,0.302,0.3012,0.3159,0.3141,0.2918,0.2899,0.3086,0.3071,0.3224,0.3224,0.3224,0.3223,0.3223,0,0.1665,0.1695,0.1743,0.1829,0.1856,0.192,0.2069,0.2153,0.2335,0.2433,0.2568,0.2662,0.2799,0.2791,0.2943,0.291,0.2934,0.2968,0.297,0.273,0.2647,0.2823,0.2943,0.2941,0.2939,0.2937,0.2936,0,0.1669,0.1714,0.1765,0.1827,0.1854,0.1955,0.2038,0.2147,0.2264,0.239,0.2491,0.2605,0.2613,0.2675,0.2743,0.2816,0.2858,0.2794,0.2869,0.287,0.2633,0.2691,0.2853,0.2908,0.2912,0.2914,0.2916,0,0.1664,0.1738,0.1754,0.178,0.1884,0.1921,0.202,0.2124,0.2206,0.2323,0.2434,0.253,0.2585,0.2615,0.2638,0.2703,0.2809,0.2706,0.2708,0.2715,0.2939,0.2687,0.2679,0.2835,0.2839,0.2842,0.2897,0,0.169,0.1729,0.1752,0.1808,0.1861,0.1916,0.1996,0.2075,0.2162,0.223,0.2357,0.2412,0.2494,0.2514,0.2525,0.2628,0.2611,0.2603,0.2569,0.2647,0.2655,0.267,0.2473,0.2472,0.2471,0.247,0,0,0.168,0.1706,0.1749,0.1785,0.183,0.1907,0.1945,0.2013,0.2114,0.217,0.2195,0.2335,0.2362,0.2436,0.2473,0.2472,0.2499,0.2474,0.2598,0.2612,0.2626,0.2638,0.2654,0.2468,0.2468,0.2468,0.2467,0,0.1672,0.1714,0.1729,0.1775,0.1853,0.1893,0.1921,0.2004,0.2066,0.2152,0.2182,0.2253,0.2323,0.2354,0.2376,0.2452,0.2455,0.2466,0.252,0.2587,0.2602,0.2616,0.2631,0.2646,0.2465,0.2465,0.2465,0,0.1665,0.1698,0.1708,0.177,0.1819,0.186,0.1896,0.197,0.2023,0.2044,0.2141,0.2181,0.2212,0.2277,0.231,0.2288,0.2408,0.236,0.2365,0.2383,0.2451,0.2468,0.2484,0.2284,0.2284,0.2283,0,0,0.1663,0.1684,0.1735,0.1769,0.1797,0.1865,0.1909,0.1954,0.2012,0.2049,0.2096,0.2145,0.2189,0.2218,0.2254,0.2303,0.2317,0.2338,0.2347,0.2354,0.2374,0.2444,0.2461,0.2281,0.2281,0.2281,0,0,0.1662,0.1703,0.1722,0.1757,0.1813,0.1875,0.1922,0.1964,0.2034,0.2055,0.2083,0.2095,0.2173,0.2174,0.2145,0.2247,0.2211,0.2218,0.2246,0.2257,0.2265,0.2282,0.213,0,0,0,0,0,0.1669,0.1689,0.1705,0.1718,0.1796,0.1856,0.1871,0.1941,0.1975,0.201,0.2061,0.2059,0.2168,0.2142,0.2149,0.2193,0.2254,0.2259,0.2263,0.2312,0.2323,0.2333,0,0,0,0,0,0,0.1674,0.1685,0.1706,0.1759,0.1779,0.1854,0.1877,0.1896,0.1973,0.1983,0.205,0.2059,0.2067,0.2138,0.2145,0.2187,0.2128,0.2256,0.226,0.2263,0.2316,0.2325,0.2333,0,0,0,0,0,0.1678,0.1688,0.1789,0.1761,0.1778,0.1871,0.1878,0.1894,0.1965,0.1995,0.2009,0.2022,0.2065,0.2075,0.2142,0.2184,0.2123,0.2126,0.2258,0.2262,0.2264,0.232,0,0,0,0,0,0,0.1682,0.1705,0.1795,0.1804,0.177,0.1871,0.1885,0.1892,0.1974,0.1989,0.1962,0.1968,0.2064,0.2072,0.2079,0.2184,0.2119,0.2122,0.2124,0.2261,0.2263,0.2266,0,0,0,0,0,0,0.1702,0.1712,0.18,0.1806,0.1817,0.187,0.1883,0.1904,0.1973,0.1936,0.1944,0.1964,0.2046,0.2069,0.2075,0.2107,0.2116,0.2119,0.2121,0.2122,0.2263,0.2265,0,0,0,0,0,0,0.1708,0.1717,0.1804,0.1812,0.1822,0.193,0.189,0.1961,0.1997,0.193,0.2001,0.2003,0.2041,0.2049,0.2072,0.2101,0.2105,0.2117,0.2118,0.2119,0.212,0,0,0,0,0,0,0,0.1713,0.1627,0.1743,0.1817,0.1825,0.1891,0.1893,0.1896,0.1998,0.1999,0.2001,0.2002,0.2102,0.2105,0.2108,0.2096,0,0,0.2116,0.2117,0,0,0,0,0,0,0,0,0.1625,0.1626,0.1743,0.1745,0.1747,0.1892,0.1893,0.1895,0.1998,0.1999,0.2,0.2001,0.2103,0.2105,0.2108,0,0,0,0,0,0,0,0,0,0,0,0,0,0,0,0.1743,0.1745,0,0.1892,0.1893,0.1895,0.1998,0.1999,0.2,0.2001,0.2104,0.2106,0.2107,0,0,0,0,0,0,0,0,0,0,0,0,0,0,0,0,0,0,0,0,0,0,0,0,0,0,0,0,0,0,0,0,0,0,0,0,0,0,0,0,0,0,0,0,0,0,0,0,0,0,0,0,0,0,0,0,0,0,0,0,0,0,0,0,0,0,0,0,0]}],[{"header":{"parameterUnit":"kt","parameterCategory":2,"dx":1,"dy":1,"la1":30.253999710083008,"la2":30.299108505249023,"lo1":-89.0895004272461,"lo2":-89.04439544677734,"nx":28,"ny":28,"refTime":"2022-10-22T21:00:00:Z","depth":"4","parameterNumber":3,"parameterNumberName":"V-component_of_CURRENTS"},"data":[0.0388,0.0451,0.0489,0.0617,0.0692,0.081,0.0879,0.0923,0.0927,0.0957,0.0847,0.0802,0.0588,0.0745,0.0378,0.0329,0.0266,0.0026,0.0022,-0.0044,-0.0037,-0.0031,0.0058,0,0,0,0,0,0.038,0.0421,0.0494,0.0596,0.069,0.0755,0.086,0.0902,0.0963,0.0973,0.0979,0.0868,0.0648,0.0551,0.0388,0.0326,0.014,0.0125,0.0072,-0.004,-0.0032,0.0052,0,0,0,0,0,0,0.037,0.0398,0.0471,0.056,0.0655,0.0754,0.08,0.0873,0.0929,0.0974,0.0963,0.0848,0.0786,0.0544,0.0376,0.0216,0.0186,0.0131,0.0128,0.0133,0.0224,0.0256,0.0161,0,0,0,0,0,0.0367,0.0396,0.0445,0.0544,0.0621,0.0709,0.0801,0.0842,0.0918,0.0932,0.0932,0.0833,0.0705,0.0544,0.0351,0.0195,0.0118,0.0031,0.0034,0.0092,0.0101,0.0082,0.0094,-0.0004,-0.0003,-0.0003,-0.0002,0,0.0366,0.0395,0.0485,0.0532,0.0575,0.0654,0.072,0.0784,0.0833,0.0872,0.0897,0.0826,0.0784,0.0542,0.041,0.0183,0.0149,0.005,0.0112,0.0114,0.009,0.0101,0.0111,0.0004,0.0003,0.0003,0.0002,0,0.0366,0.041,0.0467,0.0545,0.0579,0.0623,0.0722,0.0767,0.0792,0.0846,0.0857,0.0827,0.073,0.0616,0.046,0.0365,0.0227,0.0154,0.025,0.0223,0.0117,0.0125,0.0013,0.0011,0.0009,0.0008,0.0007,0,0.0383,0.042,0.0491,0.0516,0.0579,0.0621,0.0681,0.0708,0.0753,0.0797,0.0775,0.0785,0.0708,0.0628,0.0523,0.0374,0.0385,0.0271,0.0235,0.0341,0.0347,0.0313,0.0316,0.0295,0.0296,0.0297,0.0298,0,0.038,0.0442,0.0489,0.051,0.0576,0.0609,0.0647,0.0681,0.0722,0.0735,0.0745,0.0724,0.0718,0.063,0.0529,0.0542,0.0397,0.0401,0.0275,0.027,0.0321,0.0323,0.0299,0.03,0.03,0.03,0.0301,0,0.0393,0.0431,0.0477,0.0545,0.0557,0.0584,0.0637,0.0669,0.0693,0.0701,0.0706,0.0698,0.0687,0.0663,0.0569,0.0603,0.0512,0.0457,0.045,0.0403,0.037,0.0351,0.0343,0.0344,0.0345,0.0346,0.0347,0,0.0391,0.0435,0.0464,0.0507,0.0532,0.0557,0.0591,0.0615,0.0631,0.0647,0.0649,0.066,0.0643,0.0643,0.0618,0.0564,0.0514,0.0569,0.0419,0.0414,0.0388,0.0374,0.0517,0.0363,0.0361,0.036,0.0358,0,0.0384,0.0443,0.0446,0.0476,0.0505,0.0516,0.0551,0.0576,0.0597,0.0602,0.0624,0.063,0.0614,0.0613,0.0599,0.0576,0.053,0.054,0.0537,0.0478,0.0424,0.0394,0.0382,0.052,0.052,0.0519,0.0369,0,0.0411,0.0436,0.0443,0.0477,0.0488,0.0499,0.0518,0.0531,0.0544,0.0547,0.0564,0.0554,0.0553,0.0553,0.0545,0.0543,0.0506,0.0502,0.0485,0.0498,0.0427,0.0419,0.0504,0.0503,0.0503,0.0502,0,0,0.0399,0.0428,0.044,0.0456,0.0469,0.0468,0.0482,0.0492,0.0492,0.0502,0.0498,0.0499,0.0493,0.0509,0.0517,0.0508,0.0466,0.051,0.0495,0.0494,0.0494,0.0428,0.0421,0.0501,0.05,0.05,0.05,0,0.0408,0.0425,0.0441,0.0448,0.0459,0.0461,0.0465,0.0462,0.0472,0.0485,0.0475,0.0475,0.0476,0.0476,0.0477,0.0497,0.0455,0.0494,0.0524,0.049,0.049,0.049,0.0426,0.042,0.0498,0.0498,0.0498,0,0.0408,0.0425,0.0433,0.0447,0.0447,0.0454,0.0444,0.0445,0.0461,0.0439,0.0456,0.0445,0.0439,0.0449,0.0452,0.0444,0.0435,0.0457,0.046,0.0462,0.0426,0.0427,0.0427,0.0416,0.0416,0.0416,0,0,0.0414,0.0434,0.0438,0.0446,0.0448,0.0444,0.0443,0.0442,0.0439,0.0438,0.0435,0.0432,0.0435,0.0438,0.0433,0.044,0.0405,0.0449,0.0452,0.0456,0.046,0.0425,0.0426,0.0416,0.0416,0.0416,0,0,0.0408,0.0428,0.0435,0.0445,0.0445,0.0435,0.0435,0.0434,0.0432,0.0435,0.0427,0.0426,0.0436,0.0425,0.0422,0.0434,0.0415,0.0416,0.0451,0.0455,0.0459,0.0467,0.0411,0,0,0,0,0,0.0421,0.0428,0.0435,0.0437,0.044,0.0436,0.0434,0.043,0.0431,0.0431,0.043,0.0423,0.0421,0.0419,0.0417,0.0434,0.0412,0.0412,0.0413,0.0459,0.0464,0.0468,0,0,0,0,0,0,0.0422,0.0425,0.0434,0.0427,0.0428,0.0436,0.0431,0.0429,0.0431,0.043,0.0424,0.0423,0.0415,0.0419,0.0418,0.0434,0.0411,0.0412,0.0413,0.0413,0.046,0.0464,0.0468,0,0,0,0,0,0.0423,0.0425,0.0437,0.0426,0.0427,0.0422,0.0431,0.0429,0.043,0.0421,0.042,0.0429,0.0415,0.0414,0.0418,0.0435,0.0412,0.0411,0.0412,0.0413,0.0413,0.0462,0,0,0,0,0,0,0.0423,0.0417,0.0436,0.0435,0.0429,0.0421,0.0422,0.043,0.0421,0.042,0.0425,0.0425,0.0415,0.0415,0.0414,0.0437,0.0412,0.0412,0.0412,0.0413,0.0413,0.0413,0,0,0,0,0,0,0.0416,0.0417,0.0436,0.044,0.0439,0.0421,0.0421,0.0417,0.0421,0.0425,0.0425,0.0425,0.042,0.0415,0.0414,0.0407,0.0413,0.0412,0.0412,0.0412,0.0413,0.0413,0,0,0,0,0,0,0.0416,0.0416,0.044,0.0439,0.0439,0.0428,0.0416,0.0422,0.042,0.0425,0.0421,0.0421,0.0421,0.042,0.0414,0.0407,0.0407,0.0413,0.0412,0.0412,0.0412,0,0,0,0,0,0,0,0.0416,0.0417,0.0443,0.0439,0.0438,0.0428,0.0428,0.0427,0.042,0.042,0.042,0.0421,0.0415,0.0415,0.0414,0.0407,0,0,0.0413,0.0413,0,0,0,0,0,0,0,0,0.0416,0.0416,0.0443,0.0443,0.0443,0.0428,0.0428,0.0428,0.042,0.042,0.042,0.0421,0.0415,0.0414,0.0414,0,0,0,0,0,0,0,0,0,0,0,0,0,0,0,0.0443,0.0443,0,0.0428,0.0428,0.0428,0.042,0.042,0.042,0.0421,0.0415,0.0414,0.0414,0,0,0,0,0,0,0,0,0,0,0,0,0,0,0,0,0,0,0,0,0,0,0,0,0,0,0,0,0,0,0,0,0,0,0,0,0,0,0,0,0,0,0,0,0,0,0,0,0,0,0,0,0,0,0,0,0,0,0,0,0,0,0,0,0,0,0,0,0]}]]]